Location: *
(28.3744°N, 81.5492°W)
Time: 04:20:52
(UTC+00:00)

BREEZE-M DEB (TANK) - Pass Details

Date: 15 June 2025
Orbit: 473 x 14792 km, 45.8° (Epoch: 09 July)

Event Time Altitude Azimuth Distance (km) Brightness Sun altitude
Rises 01:15:07 0° 232° (SW) 2,656 6.6 -10.4°
Reaches altitude 10° 01:16:37 10° 232° (SW) 1,957 5.9 -10.6°
Maximum altitude 01:20:28 86° 321° (NW) 962 4.0 -11.3°
Drops below altitude 10° 01:32:01 10° 51° (NE) 5,548 7.7 -13.4°
Sets 01:39:58 0° 53° (NE) 8,535 8.7 -14.8°
